Zurück zum Katalog

STARLINK-37543

AktivKommunikationSSO
NORAD 68911·PAYLOAD·🇺🇸 United States

Gestartet Apr 30, 2026 von Vandenberg Space Force Base

Loading…

Nächste Überflüge (nächste 24 Stunden)

TLE

AktuellSource: CelesTrak SupGP

Epoche: Sep 14, 2026, 22:57 UTC

1 68911C 26097S   26257.95673611  .00078720  00000+0  24436-2 0  2570
2 68911  97.2854  92.1888 0001633  96.8365 241.4280 15.33400024    12

Verfolge STARLINK-37543 in Echtzeit mit AllMySat

Download on the App Store